Regional Weather Roundup
Issued by NWS

Home | Current Version | Previous Version | Graphics & Text | Print | Product List | Glossary On
Versions: 1 2 3 4 5 6 7 8 9 10 11 12 13 14 15 16 17 18 19 20 21 22 23 24 25 26 27 28 29 30 31 32 33 34 35 36 37 38 39 40 41 42 43 44 45 46 47 48 49 50
000
ASUS45 KCYS 190610
RWRWY

WYOMING REGIONAL WEATHER ROUNDUP
NATIONAL WEATHER SERVICE CHEYENNE WY
1100 PM MST SAT NOV 18 2017

NOTE:  "FAIR" INDICATES FEW OR NO CLOUDS BELOW 12,000 FEET
WITH NO SIGNIFICANT WEATHER AND/OR OBSTRUCTIONS TO VISIBILITY.

WYZ001-190700-
YELLOWSTONE NATIONAL PARK

CITY           SKY/WX    TMP DP  RH WIND       PRES   REMARKS
LK YELLOWSTONE   N/A     15  13  91 CALM      30.28F
6HR MIN TEMP:  15; 6HR MAX TEMP:  17;

W YELLOWSTONE  NOT AVBL

$$
WYZ002>013-054>058-071-098>099-190700-
NORTHERN WYOMING

CITY           SKY/WX    TMP DP  RH WIND       PRES   REMARKS
JACKSON        FAIR       7   4  87 N6          N/A  WCI  -3
CODY           FAIR      36  11  35 SW12G22   30.12S WCI  28
GREYBULL       FAIR      24  17  74 SE3       30.17R
6HR MIN TEMP:  23; 6HR MAX TEMP:  38;

WORLAND        FAIR      22  18  85 SW6       30.15F WCI  14
6HR MIN TEMP:  22; 6HR MAX TEMP:  30;

SHERIDAN       FAIR      25  18  74 S3        30.06F
6HR MIN TEMP:  21; 6HR MAX TEMP:  29;

BUFFALO        FAIR      30  12  47 S9        30.08F WCI  22
6HR MIN TEMP:  22; 6HR MAX TEMP:  31;

GILLETTE       FAIR      30  18  60 SW15      30.09F WCI  19
6HR MIN TEMP:  21; 6HR MAX TEMP:  31;

HULETT         FAIR      32  18  55 SW9       30.10S WCI  24
NEWCASTLE      FAIR      27  14  59 CALM      30.16S

$$
WYZ014>020-022>026-101>103-190700-
CENTRAL WYOMING

CITY           SKY/WX    TMP DP  RH WIND       PRES   REMARKS
BIG PINEY      FAIR       4   1  88 CALM      30.32S
6HR MIN TEMP:   4; 6HR MAX TEMP:  24;

PINEDALE       FAIR      10   5  79 NW5       30.33R WCI   2
DUBOIS         FAIR      21  10  63 NW15G22   30.18S WCI   8
LANDER         FAIR      27  13  55 CALM      30.17S
6HR MIN TEMP:  21; 6HR MAX TEMP:  35;

RIVERTON       FAIR      25  15  66 S9        30.17F WCI  15
6HR MIN TEMP:  24; 6HR MAX TEMP:  35;

CASPER         FAIR      28  18  66 SW28      30.15F WCI  13
6HR MIN TEMP:  28; 6HR MAX TEMP:  30;

DOUGLAS        FAIR      22  18  85 S3        30.17S
6HR MIN TEMP:  21; 6HR MAX TEMP:  31;


$$
WYZ021-027>030-104>119-190700-
SOUTHERN WYOMING

CITY           SKY/WX    TMP DP  RH WIND       PRES   REMARKS
EVANSTON       FAIR      17  15  92 SE6       30.30F WCI   9
6HR MIN TEMP:  15; 6HR MAX TEMP:  23;

FORT BRIDGER   FAIR      17  11  79 W7        30.34S WCI   7
ROCK SPRINGS   FAIR      16   9  74 N3        30.32S
6HR MIN TEMP:  16; 6HR MAX TEMP:  22;

DIXON          FAIR      17   9  71 SE7       30.38S WCI   8
RAWLINS        FAIR      23  12  62 CALM      30.29R
6HR MIN TEMP:  19; 6HR MAX TEMP:  25;

SARATOGA       FAIR      18   9  68 SE10      30.29S WCI   6
LARAMIE        FAIR      23   9  55 SW13      30.22R WCI  11
6HR MIN TEMP:  20; 6HR MAX TEMP:  25;

CHEYENNE       FAIR      33   9  36 SW6       30.21R WCI  28
6HR MIN TEMP:  27; 6HR MAX TEMP:  34;

TORRINGTON     FAIR      26  17  68 CALM      30.20R
6HR MIN TEMP:  22; 6HR MAX TEMP:  36;

PINE BLUFFS    FAIR      23  12  63 MISG      30.23S

$$



USA.gov is the U.S. government's official web portal to all federal, state and local government web resources and services.